Mobridge, SD

5:25 PM CDT on May 29, 2017 (GMT -0500)
Mobridge Municipal

Weather History for KMBG - January, 2014

Change the Weather History Date:

Sunday, January 5, 2014

  Actual Average Record
Temperature  
Mean Temperature -9 °F 16 °F  
Max Temperature -3 °F 25 °F 55 °F (2012)
Min Temperature -15 °F 6 °F -27 °F (1973)
Degree Days  
Heating Degree Days 74 49  
Month to date heating degree days 308 245  
Since 1 July heating degree days 3806 3461  
Cooling Degree Days 0 0  
Month to date cooling degree days 0 0  
Year to date cooling degree days 0 0  
Moisture  
Dew Point -21 °F    
Average Humidity 60    
Maximum Humidity 75    
Minimum Humidity 45    
Precipitation  
Precipitation T in 0.01 in 0.28 in (1937)
Month to date precipitation 0.04 0.06  
Year to date precipitation 0.04 0.06  
Snow  
Snow T in - - ()
Month to date snowfall 1.0  
Since 1 July snowfall 19.0  
Snow Depth 4.00 in    
Sea Level Pressure  
Sea Level Pressure 30.54 in    
Wind  
Wind Speed 18 mph (NW)    
Max Wind Speed 33 mph    
Max Gust Speed 43 mph    
Visibility 9 miles    
Events Snow    
T = Trace of Precipitation, MM = Missing Value Source: NWS Daily Summary

Daily Weather History Graph

Daily Weather History Graph

Search for Another Location

Airport or City:

Trip Planner

Search our weather history database for the weather conditions in past years. The results will help you decide how hot, cold, wet, or windy it might be!

Date:

Astronomy

Jan. 05, 2014 Rise Set
Actual Time 8:21 AM CST 5:12 PM CST
Civil Twilight 7:47 AM CST 5:46 PM CST
Nautical Twilight 7:10 AM CST 6:23 PM CST
Astronomical Twilight 6:34 AM CST 6:59 PM CST
Moon 10:48 AM CST (1/5) 11:00 PM CST (1/5)
Length of Visible Light 9h 58m
Length of Day
8h 51m
Waxing Crescent, 25% of the Moon is Illuminated
Jan 5
Waxing Crescent
Jan 7
First Quarter
Jan 15
Full
Jan 23
Last Quarter
Jan 30
New

Hourly Weather History & Observations

Time (CST) Temp. Windchill Dew Point Humidity Pressure Visibility Wind Dir Wind Speed Gust Speed Precip Events Conditions
12:52 AM -5.1 °F -17.6 °F -11.9 °F 72% 30.42 in 10.0 mi WNW 5.8 mph - N/A   Mostly Cloudy
1:52 AM -2.9 °F -13.3 °F -11.0 °F 68% 30.43 in 10.0 mi NW 4.6 mph - N/A   Overcast
2:52 AM -4.0 °F -12.4 °F -11.9 °F 69% 30.45 in 10.0 mi WNW 3.5 mph - N/A   Partly Cloudy
3:52 AM -2.9 °F -25.6 °F -11.9 °F 65% 30.45 in 10.0 mi NNW 19.6 mph - N/A   Partly Cloudy
4:52 AM -7.1 °F -25.0 °F -15.0 °F 68% 30.47 in 10.0 mi North 10.4 mph - N/A   Clear
5:52 AM -9.0 °F -25.2 °F -16.1 °F 71% 30.48 in 10.0 mi NW 8.1 mph - N/A   Clear
6:52 AM -7.1 °F -27.6 °F -16.1 °F 65% 30.50 in 10.0 mi NW 13.8 mph - N/A   Mostly Cloudy
7:52 AM -7.1 °F -25.0 °F -14.1 °F 72% 30.53 in 9.0 mi NNW 10.4 mph - N/A   Overcast
8:13 AM -7.6 °F -24.6 °F -14.8 °F 71% 30.37 in 5.0 mi NNW 9.2 mph - N/A   Haze
8:26 AM -7.6 °F -24.6 °F -14.8 °F 71% 30.37 in 10.0 mi NW 9.2 mph - N/A   Scattered Clouds
8:52 AM -9.0 °F -27.4 °F -16.1 °F 71% 30.56 in 10.0 mi NW 10.4 mph - N/A   Clear
9:52 AM -7.1 °F -30.4 °F -17.0 °F 62% 30.59 in 10.0 mi NW 18.4 mph 24.2 mph N/A   Overcast
10:15 AM -7.6 °F -33.9 °F -14.8 °F 71% 30.44 in 1.8 mi NNW 24.2 mph 33.4 mph 0.00 in Snow Light Snow
10:25 AM -7.6 °F -35.3 °F -20.2 °F 54% 30.45 in 3.0 mi NNW 27.6 mph 34.5 mph 0.00 in   Overcast
10:47 AM -9.4 °F -37.3 °F -23.8 °F 49% 30.47 in 10.0 mi NNW 26.5 mph 36.8 mph 0.00 in   Overcast
10:52 AM -9.0 °F -35.8 °F -23.1 °F 50% 30.64 in 10.0 mi NNW 24.2 mph 35.7 mph 0.00 in   Overcast
11:52 AM -9.9 °F -38.4 °F -24.0 °F 50% 30.66 in 10.0 mi NNW 27.6 mph 34.5 mph N/A   Overcast
12:52 PM -9.9 °F -38.4 °F -26.0 °F 45% 30.66 in 10.0 mi NW 27.6 mph 36.8 mph N/A   Overcast
1:52 PM -11.0 °F -39.0 °F -25.1 °F 50% 30.65 in 10.0 mi NW 25.3 mph 32.2 mph N/A   Overcast
2:52 PM -11.0 °F -39.9 °F -25.1 °F 50% 30.65 in 10.0 mi NW 27.6 mph 34.5 mph N/A   Mostly Cloudy
3:14 PM -9.4 °F -39.0 °F -23.8 °F 49% 30.47 in 10.0 mi NW 31.1 mph 40.3 mph N/A   Overcast
3:52 PM -11.0 °F -37.9 °F -24.0 °F 53% 30.65 in 10.0 mi NW 23.0 mph 35.7 mph N/A   Overcast
4:09 PM -11.2 °F -38.7 °F -23.8 °F 54% 30.49 in 10.0 mi NW 24.2 mph 36.8 mph N/A   Overcast
4:18 PM -11.2 °F -40.6 °F -25.6 °F 49% 30.49 in 10.0 mi NW 28.8 mph 35.7 mph N/A   Overcast
4:43 PM -13.0 °F -43.0 °F -25.6 °F 53% 30.49 in 10.0 mi NW 28.8 mph 38.0 mph N/A   Mostly Cloudy
4:52 PM -13.0 °F -43.9 °F -26.0 °F 53% 30.66 in 10.0 mi NW 31.1 mph 36.8 mph N/A   Mostly Cloudy
5:03 PM -13.0 °F -41.6 °F -25.6 °F 53% 30.49 in 10.0 mi NW 25.3 mph 36.8 mph N/A   Partly Cloudy
5:52 PM -13.0 °F -40.6 °F -27.0 °F 50% 30.68 in 10.0 mi NW 23.0 mph 35.7 mph N/A   Clear
6:52 PM -14.1 °F -43.0 °F -26.0 °F 55% 30.66 in 10.0 mi NW 25.3 mph - N/A   Clear
7:52 PM -15.0 °F -41.4 °F -26.0 °F 58% 30.66 in 10.0 mi NW 19.6 mph - N/A   Clear
8:52 PM -14.1 °F -41.4 °F -26.0 °F 55% 30.64 in 10.0 mi NW 21.9 mph - N/A   Mostly Cloudy
9:52 PM -15.0 °F -39.3 °F -26.0 °F 58% 30.63 in 10.0 mi NW 16.1 mph - N/A   Mostly Cloudy
10:52 PM -13.0 °F -40.0 °F -24.0 °F 58% 30.61 in 10.0 mi NW 21.9 mph 29.9 mph N/A   Mostly Cloudy
11:31 PM -11.2 °F -38.2 °F -20.2 °F 64% 30.42 in 1.8 mi NW 23.0 mph 27.6 mph 0.00 in Snow Light Snow
11:44 PM -11.2 °F -35.8 °F -20.2 °F 64% 30.42 in 2.0 mi NW 18.4 mph 31.1 mph 0.00 in Snow Light Snow
11:52 PM -11.9 °F -37.4 °F -20.9 °F 64% 30.60 in 2.0 mi NW 19.6 mph - 0.00 in Snow Light Snow